FW3943 Weather Reports


time (UTC)temp
F
wind
direction
speed
knots
gust
knots
rain 1hr
in
rain 24hr
in
rain mn
in
humidity
%
barometer
mb
20260508163039 56 30 5.2 7.8 0.00 1.28 0.00 100 1001.7
20260508161537 55 3 4.3 7.8 0.00 1.28 0.00 100 1001.9
20260508160035 54 350 5.2 7.8 0.00 1.28 0.00 100 1001.7
20260508154530 53 348 5.2 8.7 0.00 1.28 0.00 100 1002.0
20260508153028 52 346 5.2 10.4 0.00 1.28 0.00 100 1001.9
20260508151529 51 336 6.1 10.4 0.00 1.28 0.00 100 1002.1
20260508150032 51 337 6.1 9.6 0.00 1.28 0.00 100 1002.0
20260508144523 51 327 5.2 10.4 0.00 1.28 0.00 100 1002.0
20260508143024 51 354 8.7 13.0 0.00 1.28 0.00 100 1001.7
20260508141526 50 337 5.2 10.4 0.00 1.28 0.00 100 1002.0
20260508140019 50 333 4.3 8.7 0.00 1.28 0.00 100 1002.2
20260508134519 49 339 5.2 9.6 0.00 1.28 0.00 100 1002.2
20260508133014 48 355 2.6 7.0 0.00 1.28 0.00 100 1002.5
20260508131512 48 35 1.7 4.3 0.00 1.28 0.00 100 1002.4
20260508130010 47 69 1.7 4.3 0.00 1.28 0.00 100 1002.6
20260508124509 47 76 0.9 4.3 0.00 1.29 0.00 100 1002.4
20260508123007 47 13 1.7 4.3 0.00 1.29 0.00 100 1002.3
20260508121509 46 40 1.7 5.2 0.00 1.29 0.00 100 1002.3
20260508120004 45 40 5.2 8.7 0.00 1.29 0.00 100 1002.3
20260508114559 46 356 6.1 10.4 0.00 1.29 0.00 100 1002.3
20260508113106 46 3 2.6 8.7 0.00 1.29 0.00 100 1002.6
20260508111600 46 358 6.1 8.7 0.00 1.29 0.00 100 1002.6
20260508110058 46 3 2.6 8.7 0.00 1.29 0.00 100 1002.5
20260508104551 44 348 2.6 5.2 0.00 1.34 0.00 100 1002.3
20260508103046 42 8 0.9 2.6 0.00 1.34 0.00 100 1002.5
20260508101547 42 8 0.0 2.6 0.00 1.34 0.00 100 1002.6
20260508100044 41 3 0.9 2.6 0.00 1.34 0.00 100 1002.4
20260508094544 41 3 0.0 1.7 0.00 1.34 0.00 100 1002.3
20260508093047 40 3 0.0 1.7 0.00 1.34 0.00 100 1002.4
20260508091549 41 164 0.0 2.6 0.00 1.34 0.00 100 1002.2
20260508090042 41 254 0.0 0.0 0.00 1.34 0.00 100 1001.9
20260508084538 42 254 0.0 0.9 0.00 1.35 0.00 100 1002.0
20260508083042 42 254 0.0 1.7 0.00 1.35 0.00 100 1002.2
20260508081536 42 254 0.0 0.0 0.00 1.35 0.00 100 1002.1
20260508080040 43 254 0.0 0.9 0.00 1.35 0.00 100 1001.7
20260508074544 43 254 0.9 1.7 0.00 1.36 0.00 100 1001.8
20260508073030 43 254 1.7 2.6 0.00 1.36 0.00 100 1001.6
20260508071532 43 198 0.9 1.7 0.00 1.36 0.00 100 1001.6
20260508070029 43 198 0.9 1.7 0.00 1.36 0.00 100 1001.8
20260508064527 44 198 0.0 1.7 0.00 1.37 0.00 100 1001.6
20260508063026 44 198 0.0 0.0 0.00 1.37 0.00 100 1001.7
20260508061525 44 198 0.0 0.9 0.00 1.37 0.00 100 1001.7
20260508060024 44 198 1.7 2.6 0.00 1.37 0.00 100 1002.0
20260508054523 43 190 0.0 0.0 0.00 1.37 0.00 100 1001.8
20260508053024 44 190 0.0 0.0 0.00 1.37 0.00 100 1001.7
20260508051525 44 190 0.0 1.7 0.00 1.37 0.00 100 1001.8
20260508050027 44 190 0.0 0.9 0.00 1.37 0.00 100 1001.7
20260508044518 44 190 0.0 1.7 0.00 1.37 0.00 100 1001.7
20260508043015 44 190 0.0 1.7 0.00 1.37 0.00 100 1001.8
20260508041514 44 190 0.0 1.7 0.00 1.37 0.00 100 1001.9
20260508040014 44 190 0.0 0.0 0.00 1.37 0.00 100 1002.2
20260508034512 44 190 0.0 1.7 0.00 1.37 0.00 100 1002.1
20260508033012 44 190 0.0 0.9 0.00 1.37 0.00 100 1002.3
20260508031510 44 190 0.9 1.7 0.00 1.37 0.00 100 1002.4
20260508030007 43 190 0.0 2.6 0.00 1.37 0.00 100 1002.6
20260508024507 43 190 0.0 2.6 0.00 1.37 1.37 100 1002.6
20260508023005 43 154 0.0 1.7 0.00 1.37 1.37 100 1002.6
20260508021511 43 154 0.0 0.9 0.00 1.37 1.37 100 1002.6
20260508020004 43 154 0.9 2.6 0.00 1.37 1.37 100 1002.7
20260508014503 44 153 2.6 4.3 0.00 1.37 1.37 100 1002.8
20260508013002 44 179 1.7 3.5 0.00 1.37 1.37 100 1002.9
20260508011505 45 163 0.0 2.6 0.00 1.37 1.37 100 1002.5
20260508010006 45 163 0.9 2.6 0.00 1.37 1.37 100 1002.2
20260508004611 45 163 0.9 4.3 0.01 1.37 1.37 100 1002.5
20260508003105 46 169 0.0 2.6 0.01 1.37 1.37 100 1002.9
20260508001559 46 169 0.0 1.7 0.01 1.37 1.37 100 1002.5
20260508000059 46 172 0.0 4.3 0.01 1.37 1.37 100 1002.5
20260507234559 45 194 2.6 5.2 0.00 1.36 1.36 100 1002.6
20260507233058 46 184 1.7 5.2 0.00 1.36 1.36 100 1002.8
20260507231558 45 254 0.9 3.5 0.00 1.36 1.36 100 1002.4
20260507230104 45 144 2.6 10.4 0.00 1.36 1.36 100 1002.7
20260507224656 45 125 4.3 7.8 0.00 1.36 1.36 100 1003.1
20260507223100 45 140 1.7 5.2 0.00 1.36 1.36 100 1002.8
20260507221555 45 175 3.5 8.7 0.00 1.36 1.36 100 1003.0
20260507220054 46 138 6.1 11.3 0.00 1.36 1.36 100 1003.0
20260507214615 47 165 5.2 11.3 0.01 1.36 1.36 100 1003.2
20260507213104 48 159 7.8 16.5 0.01 1.36 1.36 100 1003.5
20260507211607 48 138 7.8 11.3 0.02 1.36 1.36 100 1003.3
20260507210055 48 121 9.6 15.6 0.07 1.36 1.36 100 1003.0
20260507204601 48 146 7.8 13.0 0.10 1.35 1.35 100 1002.7
20260507203053 48 138 6.1 11.3 0.19 1.35 1.35 100 1003.6
20260507201547 48 145 5.2 10.4 0.28 1.34 1.34 100 1003.9
20260507200045 48 138 3.5 7.8 0.40 1.29 1.29 100 1004.2
20260507194613 48 152 5.2 7.8 0.60 1.25 1.25 100 1004.5
20260507193041 48 161 2.6 5.2 0.65 1.15 1.15 100 1005.0
20260507191543 48 131 4.3 8.7 0.73 1.05 1.05 100 1005.3
20260507190034 46 225 4.3 11.3 0.72 0.89 0.89 100 1005.9
20260507184539 46 186 7.0 13.0 0.52 0.65 0.65 100 1005.9
20260507183037 45 164 4.3 9.6 0.40 0.51 0.51 100 1005.8
20260507181531 45 175 5.2 10.4 0.21 0.32 0.32 100 1006.3
20260507180031 44 169 6.1 11.3 0.07 0.17 0.17 100 1006.1
20260507174536 45 142 11.3 18.2 0.03 0.13 0.13 100 1005.6
20260507173035 45 173 6.1 14.8 0.01 0.11 0.11 100 1005.9
20260507171525 45 171 12.2 17.4 0.02 0.11 0.11 100 1006.4
20260507170023 45 149 8.7 13.9 0.01 0.10 0.10 100 1006.4
20260507164522 45 150 7.8 14.8 0.01 0.10 0.10 100 1006.9